Location: Kuffner-Sternwarte
(48.2130°N, 16.2960°E)
Time: 11:23:33
(UTC+01:00)

COROT - Pass Details

Date: 24 March 2017
Orbit: 602 x 887 km, 90.0° (Epoch: 20 November)

Event Time Altitude Azimuth Distance (km) Brightness Sun altitude
Rises 23:21:29 0° 14° (NNE) 3,076 9.9 -39.3°
Reaches altitude 10° 23:24:15 10° 32° (NNE) 2,206 8.8 -39.4°
Enters shadow 23:24:16 10° 32° (NNE) 2,201 8.8 -39.4°
